カタログに戻る

STARLINK-32704

運用中通信VLEO
NORAD 62826·PAYLOAD·🇺🇸 United States

打ち上げ Jan 24, 2025 から Vandenberg Space Force Base

Loading…

次のパス (今後24時間)

TLE

最新Source: CelesTrak SupGP

元期: Sep 14, 2026, 22:47 UTC

1 62826C 25018W   26257.94979167  .00068132  00000+0  92971-3 0  2571
2 62826  53.1453 136.3859 0004190 109.2377 194.5231 15.56823448    17

AllMySatでSTARLINK-32704をリアルタイム追跡

Download on the App Store